| time (UTC) | temp C | wind direction | speed KPH | gust KPH | rain 1hr cm | rain 24hr cm | rain mn cm | humidity % | barometer mb |
| 20260502162205 | 28 | 166 | 17.7 | 24.1 | 0.00 | 0.00 | 0.00 | 35 | 988.7 |
| 20260502161702 | 28 | 129 | 16.1 | 20.9 | 0.00 | 0.00 | 0.00 | 34 | 988.5 |
| 20260502161158 | 28 | 164 | 6.4 | 9.7 | 0.00 | 0.00 | 0.00 | 34 | 988.5 |
| 20260502160657 | 27 | 117 | 9.7 | 11.3 | 0.00 | 0.00 | 0.00 | 34 | 988.6 |
| 20260502160155 | 28 | 111 | 14.5 | 16.1 | 0.00 | 0.00 | 0.00 | 32 | 988.5 |
| 20260502152109 | 26 | 172 | 8.0 | 11.3 | 0.00 | 0.00 | 0.00 | 31 | 988.2 |
| 20260502151606 | 26 | 179 | 4.8 | 4.8 | 0.00 | 0.00 | 0.00 | 32 | 988.3 |
| 20260502151104 | 26 | 179 | 9.7 | 12.9 | 0.00 | 0.00 | 0.00 | 32 | 988.4 |
| 20260502150601 | 26 | 184 | 1.6 | 3.2 | 0.00 | 0.00 | 0.00 | 32 | 988.2 |
| 20260502130446 | 21 | 321 | 0.0 | 0.0 | 0.00 | 0.00 | 0.00 | 34 | 986.8 |
| 20260502123429 | 22 | 320 | 1.6 | 3.2 | 0.00 | 0.00 | 0.00 | 33 | 986.5 |
| 20260502122926 | 22 | 325 | 4.8 | 4.8 | 0.00 | 0.00 | 0.00 | 33 | 986.2 |
| 20260502122422 | 22 | 321 | 0.0 | 1.6 | 0.00 | 0.00 | 0.00 | 34 | 986.1 |
| 20260502121920 | 22 | 321 | 4.8 | 4.8 | 0.00 | 0.00 | 0.00 | 34 | 986.2 |
| 20260502121417 | 22 | 324 | 1.6 | 3.2 | 0.00 | 0.00 | 0.00 | 32 | 986.1 |
| 20260502120915 | 22 | 189 | 4.8 | 8.0 | 0.00 | 0.00 | 0.00 | 34 | 986.0 |
| 20260502120410 | 22 | 190 | 3.2 | 4.8 | 0.00 | 0.00 | 0.00 | 35 | 986.0 |
| 20260502115908 | 22 | 190 | 1.6 | 3.2 | 0.00 | 0.00 | 0.00 | 34 | 986.0 |
| 20260502115405 | 21 | 196 | 3.2 | 3.2 | 0.00 | 0.00 | 0.00 | 36 | 985.9 |
| 20260502114901 | 20 | 215 | 1.6 | 1.6 | 0.00 | 0.00 | 0.00 | 37 | 985.8 |
| 20260502114358 | 21 | 195 | 1.6 | 1.6 | 0.00 | 0.00 | 0.00 | 36 | 985.9 |
| 20260502113855 | 21 | 191 | 1.6 | 1.6 | 0.00 | 0.00 | 0.00 | 36 | 986.2 |
| 20260502113352 | 21 | 192 | 1.6 | 1.6 | 0.00 | 0.00 | 0.00 | 36 | 986.0 |
| 20260502112851 | 21 | 191 | 3.2 | 3.2 | 0.00 | 0.00 | 0.00 | 36 | 985.9 |
| 20260502112348 | 21 | 191 | 1.6 | 3.2 | 0.00 | 0.00 | 0.00 | 36 | 986.0 |
| 20260502111845 | 21 | 190 | 3.2 | 3.2 | 0.00 | 0.00 | 0.00 | 35 | 986.0 |
| 20260502111343 | 21 | 190 | 3.2 | 3.2 | 0.00 | 0.00 | 0.00 | 36 | 986.0 |
| 20260502110840 | 21 | 190 | 1.6 | 3.2 | 0.00 | 0.00 | 0.00 | 36 | 986.0 |
| 20260502110338 | 21 | 190 | 4.8 | 4.8 | 0.00 | 0.00 | 0.00 | 36 | 985.9 |
| 20260502105835 | 21 | 190 | 3.2 | 3.2 | 0.00 | 0.00 | 0.00 | 35 | 985.9 |
| 20260502105331 | 22 | 190 | 1.6 | 3.2 | 0.00 | 0.00 | 0.00 | 34 | 985.8 |
| 20260502104824 | 22 | 312 | 3.2 | 3.2 | 0.00 | 0.00 | 0.00 | 33 | 985.8 |
| 20260502104321 | 22 | 318 | 4.8 | 4.8 | 0.00 | 0.00 | 0.00 | 34 | 985.9 |
| 20260502103818 | 22 | 192 | 1.6 | 1.6 | 0.00 | 0.00 | 0.00 | 34 | 986.0 |
| 20260502103315 | 22 | 190 | 1.6 | 3.2 | 0.00 | 0.00 | 0.00 | 34 | 985.7 |
| 20260502102813 | 22 | 191 | 3.2 | 4.8 | 0.00 | 0.00 | 0.00 | 34 | 985.8 |
| 20260502102309 | 21 | 203 | 0.0 | 1.6 | 0.00 | 0.00 | 0.00 | 35 | 985.8 |
| 20260502101807 | 22 | 200 | 1.6 | 1.6 | 0.00 | 0.00 | 0.00 | 34 | 985.8 |
| 20260502101305 | 22 | 199 | 1.6 | 1.6 | 0.00 | 0.00 | 0.00 | 34 | 985.7 |
| 20260502100803 | 22 | 285 | 3.2 | 3.2 | 0.00 | 0.00 | 0.00 | 34 | 985.6 |
| 20260502100302 | 22 | 219 | 3.2 | 3.2 | 0.00 | 0.00 | 0.00 | 34 | 985.5 |
| 20260502091235 | 22 | 268 | 1.6 | 1.6 | 0.00 | 0.00 | 0.00 | 34 | 985.5 |
| 20260502090733 | 22 | 231 | 0.0 | 0.0 | 0.00 | 0.00 | 0.00 | 34 | 985.4 |
| 20260502090229 | 22 | 232 | 0.0 | 0.0 | 0.00 | 0.00 | 0.00 | 33 | 985.4 |
| 20260502071130 | 25 | 234 | 1.6 | 1.6 | 0.00 | 0.00 | 0.00 | 27 | 984.7 |
| 20260502070628 | 25 | 255 | 6.4 | 8.0 | 0.00 | 0.00 | 0.00 | 26 | 984.5 |
| 20260502070126 | 24 | 225 | 1.6 | 1.6 | 0.00 | 0.00 | 0.00 | 27 | 984.4 |
| 20260502065624 | 25 | 263 | 4.8 | 4.8 | 0.00 | 0.00 | 0.00 | 27 | 984.8 |
| 20260502065121 | 24 | 233 | 0.0 | 0.0 | 0.00 | 0.00 | 0.00 | 27 | 984.4 |
| 20260502064620 | 25 | 227 | 0.0 | 1.6 | 0.00 | 0.00 | 0.00 | 27 | 984.5 |
| 20260502064117 | 25 | 243 | 1.6 | 3.2 | 0.00 | 0.00 | 0.00 | 26 | 984.4 |
| 20260502063614 | 25 | 220 | 1.6 | 1.6 | 0.00 | 0.00 | 0.00 | 26 | 984.6 |
| 20260502063112 | 25 | 238 | 0.0 | 1.6 | 0.00 | 0.00 | 0.00 | 26 | 984.4 |
| 20260502062609 | 25 | 233 | 6.4 | 8.0 | 0.00 | 0.00 | 0.00 | 27 | 984.5 |
| 20260502062107 | 25 | 230 | 3.2 | 3.2 | 0.00 | 0.00 | 0.00 | 27 | 984.3 |
| 20260502061604 | 25 | 225 | 0.0 | 1.6 | 0.00 | 0.00 | 0.00 | 27 | 984.6 |
| 20260502061101 | 25 | 228 | 3.2 | 3.2 | 0.00 | 0.00 | 0.00 | 27 | 984.6 |
| 20260502060556 | 25 | 250 | 1.6 | 3.2 | 0.00 | 0.00 | 0.00 | 27 | 984.4 |
| 20260502060053 | 25 | 230 | 6.4 | 8.0 | 0.00 | 0.00 | 0.00 | 27 | 984.4 |
| 20260502055550 | 25 | 240 | 3.2 | 3.2 | 0.00 | 0.00 | 0.00 | 27 | 984.3 |
| 20260502055049 | 25 | 260 | 4.8 | 8.0 | 0.00 | 0.00 | 0.00 | 26 | 984.4 |
| 20260502054547 | 26 | 260 | 1.6 | 3.2 | 0.00 | 0.00 | 0.00 | 25 | 984.4 |
| 20260502054044 | 28 | 265 | 4.8 | 4.8 | 0.00 | 0.00 | 0.00 | 24 | 984.4 |
| 20260502053541 | 27 | 228 | 3.2 | 4.8 | 0.00 | 0.00 | 0.00 | 24 | 984.3 |
| 20260502053039 | 28 | 220 | 3.2 | 3.2 | 0.00 | 0.00 | 0.00 | 24 | 984.2 |
| 20260502052537 | 28 | 230 | 4.8 | 8.0 | 0.00 | 0.00 | 0.00 | 24 | 984.1 |
| 20260502052035 | 28 | 225 | 1.6 | 1.6 | 0.00 | 0.00 | 0.00 | 24 | 984.0 |
| 20260502051533 | 28 | 228 | 4.8 | 4.8 | 0.00 | 0.00 | 0.00 | 23 | 984.3 |
| 20260502051030 | 28 | 227 | 4.8 | 8.0 | 0.00 | 0.00 | 0.00 | 24 | 984.1 |
| 20260502050526 | 28 | 225 | 1.6 | 1.6 | 0.00 | 0.00 | 0.00 | 24 | 984.0 |
| 20260502050023 | 28 | 227 | 6.4 | 8.0 | 0.00 | 0.00 | 0.00 | 23 | 984.1 |
| 20260502045520 | 27 | 218 | 3.2 | 3.2 | 0.00 | 0.00 | 0.00 | 24 | 984.0 |
| 20260502045017 | 26 | 217 | 0.0 | 0.0 | 0.00 | 0.00 | 0.00 | 26 | 984.0 |
| 20260502044513 | 28 | 217 | 0.0 | 0.0 | 0.00 | 0.00 | 0.00 | 26 | 983.7 |
| 20260502044010 | 28 | 222 | 1.6 | 3.2 | 0.00 | 0.00 | 0.00 | 24 | 983.7 |
| 20260502043508 | 28 | 222 | 0.0 | 0.0 | 0.00 | 0.00 | 0.00 | 24 | 983.9 |
| 20260502043004 | 28 | 221 | 0.0 | 0.0 | 0.00 | 0.00 | 0.00 | 24 | 983.9 |
| 20260502042459 | 28 | 219 | 0.0 | 1.6 | 0.00 | 0.00 | 0.00 | 24 | 983.6 |
| 20260502041957 | 27 | 219 | 0.0 | 0.0 | 0.00 | 0.00 | 0.00 | 24 | 983.7 |
| 20260502041454 | 27 | 219 | 0.0 | 1.6 | 0.00 | 0.00 | 0.00 | 24 | 983.6 |
| 20260502040945 | 27 | 222 | 0.0 | 0.0 | 0.00 | 0.00 | 0.00 | 24 | 983.5 |
| 20260502040442 | 27 | 222 | 0.0 | 0.0 | 0.00 | 0.00 | 0.00 | 24 | 983.4 |
| 20260502035938 | 27 | 222 | 0.0 | 0.0 | 0.00 | 0.00 | 0.00 | 24 | 983.5 |
| 20260502035434 | 28 | 222 | 0.0 | 0.0 | 0.00 | 0.00 | 0.00 | 23 | 983.5 |
| 20260502034932 | 28 | 221 | 0.0 | 0.0 | 0.00 | 0.00 | 0.00 | 23 | 983.3 |
| 20260502034431 | 28 | 221 | 0.0 | 0.0 | 0.00 | 0.00 | 0.00 | 22 | 983.5 |
| 20260502033929 | 28 | 221 | 0.0 | 0.0 | 0.00 | 0.00 | 0.00 | 22 | 983.4 |
| 20260502033426 | 29 | 220 | 0.0 | 0.0 | 0.00 | 0.00 | 0.00 | 22 | 983.4 |
| 20260502032922 | 30 | 220 | 1.6 | 1.6 | 0.00 | 0.00 | 0.00 | 22 | 983.1 |
| 20260502032419 | 29 | 218 | 0.0 | 0.0 | 0.00 | 0.00 | 0.00 | 23 | 983.1 |
| 20260502031916 | 30 | 219 | 3.2 | 3.2 | 0.00 | 0.00 | 0.00 | 22 | 983.1 |
| 20260502031415 | 30 | 224 | 4.8 | 4.8 | 0.00 | 0.00 | 0.00 | 22 | 983.1 |
| 20260502030913 | 30 | 215 | 4.8 | 8.0 | 0.00 | 0.00 | 0.00 | 22 | 982.9 |
| 20260502030411 | 30 | 222 | 8.0 | 9.7 | 0.00 | 0.00 | 0.00 | 22 | 983.0 |
| 20260502025908 | 30 | 221 | 6.4 | 9.7 | 0.00 | 0.00 | 0.00 | 22 | 982.9 |
| 20260502025405 | 30 | 236 | 6.4 | 8.0 | 0.00 | 0.00 | 0.00 | 23 | 982.8 |
| 20260502024903 | 30 | 229 | 3.2 | 3.2 | 0.00 | 0.00 | 0.00 | 22 | 982.7 |
| 20260502024401 | 30 | 227 | 4.8 | 4.8 | 0.00 | 0.00 | 0.00 | 22 | 982.9 |
| 20260502023858 | 30 | 234 | 4.8 | 8.0 | 0.00 | 0.00 | 0.00 | 22 | 982.7 |
| 20260502023356 | 30 | 225 | 8.0 | 9.7 | 0.00 | 0.00 | 0.00 | 22 | 982.5 |
| 20260502022853 | 30 | 221 | 8.0 | 9.7 | 0.00 | 0.00 | 0.00 | 22 | 982.5 |
| 20260502022349 | 30 | 227 | 6.4 | 8.0 | 0.00 | 0.00 | 0.00 | 22 | 982.5 |
| 20260502021846 | 30 | 221 | 4.8 | 8.0 | 0.00 | 0.00 | 0.00 | 23 | 982.5 |
| 20260502021343 | 30 | 218 | 4.8 | 4.8 | 0.00 | 0.00 | 0.00 | 23 | 982.4 |
| 20260502020841 | 30 | 223 | 8.0 | 9.7 | 0.00 | 0.00 | 0.00 | 23 | 982.2 |
| 20260502020338 | 30 | 226 | 4.8 | 8.0 | 0.00 | 0.00 | 0.00 | 23 | 982.4 |
| 20260502015835 | 30 | 218 | 4.8 | 4.8 | 0.00 | 0.00 | 0.00 | 23 | 982.4 |
| 20260502015332 | 30 | 224 | 3.2 | 3.2 | 0.00 | 0.00 | 0.00 | 23 | 982.3 |
| 20260502014829 | 31 | 227 | 3.2 | 4.8 | 0.00 | 0.00 | 0.00 | 23 | 982.3 |
| 20260502014326 | 31 | 223 | 3.2 | 3.2 | 0.00 | 0.00 | 0.00 | 23 | 982.3 |
| 20260502013822 | 31 | 236 | 6.4 | 9.7 | 0.00 | 0.00 | 0.00 | 23 | 982.3 |
| 20260502013318 | 31 | 242 | 8.0 | 9.7 | 0.00 | 0.00 | 0.00 | 23 | 982.2 |
| 20260502012815 | 31 | 220 | 3.2 | 4.8 | 0.00 | 0.00 | 0.00 | 23 | 982.4 |
| 20260502012313 | 31 | 220 | 8.0 | 9.7 | 0.00 | 0.00 | 0.00 | 22 | 982.1 |
| 20260502011810 | 31 | 214 | 1.6 | 3.2 | 0.00 | 0.00 | 0.00 | 23 | 982.3 |
| 20260502011306 | 31 | 235 | 4.8 | 8.0 | 0.00 | 0.00 | 0.00 | 23 | 982.1 |
| 20260502010804 | 31 | 226 | 4.8 | 4.8 | 0.00 | 0.00 | 0.00 | 23 | 982.4 |
| 20260502010259 | 31 | 246 | 6.4 | 8.0 | 0.00 | 0.00 | 0.00 | 23 | 982.4 |
| 20260502005756 | 31 | 242 | 3.2 | 4.8 | 0.00 | 0.00 | 0.00 | 23 | 982.6 |
| 20260502005254 | 31 | 237 | 1.6 | 3.2 | 0.00 | 0.00 | 0.00 | 23 | 982.5 |
| 20260502004751 | 32 | 220 | 1.6 | 1.6 | 0.00 | 0.00 | 0.00 | 23 | 982.4 |
| 20260502004247 | 31 | 238 | 4.8 | 8.0 | 0.00 | 0.00 | 0.00 | 24 | 982.4 |
| 20260502003745 | 31 | 253 | 4.8 | 8.0 | 0.00 | 0.00 | 0.00 | 23 | 982.4 |
| 20260502003242 | 31 | 230 | 8.0 | 9.7 | 0.00 | 0.00 | 0.00 | 24 | 982.3 |
| 20260502002737 | 31 | 212 | 1.6 | 3.2 | 0.00 | 0.00 | 0.00 | 24 | 982.3 |
| 20260502002235 | 31 | 222 | 4.8 | 8.0 | 0.00 | 0.00 | 0.00 | 24 | 982.4 |
| 20260502001732 | 31 | 229 | 6.4 | 9.7 | 0.00 | 0.00 | 0.00 | 24 | 982.5 |
| 20260502001230 | 32 | 219 | 11.3 | 12.9 | 0.00 | 0.00 | 0.00 | 24 | 982.5 |
| 20260502000728 | 31 | 229 | 1.6 | 1.6 | 0.00 | 0.00 | 0.00 | 24 | 982.6 |
| 20260502000226 | 31 | 232 | 9.7 | 11.3 | 0.00 | 0.00 | 0.00 | 24 | 982.6 |
| 20260501235721 | 31 | 219 | 8.0 | 11.3 | 0.00 | 0.00 | 0.00 | 24 | 982.6 |
| 20260501235217 | 31 | 243 | 4.8 | 4.8 | 0.00 | 0.00 | 0.00 | 25 | 982.6 |
| 20260501234713 | 31 | 228 | 6.4 | 9.7 | 0.00 | 0.00 | 0.00 | 25 | 982.7 |
| 20260501234210 | 31 | 220 | 0.0 | 0.0 | 0.00 | 0.00 | 0.00 | 26 | 982.9 |
| 20260501233708 | 31 | 247 | 4.8 | 4.8 | 0.00 | 0.00 | 0.00 | 25 | 982.6 |
| 20260501233205 | 31 | 248 | 0.0 | 0.0 | 0.00 | 0.00 | 0.00 | 25 | 982.9 |
| 20260501232701 | 31 | 230 | 0.0 | 1.6 | 0.00 | 0.00 | 0.00 | 26 | 983.0 |
| 20260501232159 | 31 | 207 | 9.7 | 11.3 | 0.00 | 0.00 | 0.00 | 26 | 982.9 |
| 20260501231656 | 30 | 202 | 4.8 | 4.8 | 0.00 | 0.00 | 0.00 | 27 | 983.0 |
| 20260501231154 | 31 | 222 | 0.0 | 0.0 | 0.00 | 0.00 | 0.00 | 26 | 983.1 |
| 20260501230652 | 31 | 251 | 6.4 | 9.7 | 0.00 | 0.00 | 0.00 | 26 | 982.9 |
| 20260501230150 | 31 | 248 | 8.0 | 9.7 | 0.00 | 0.00 | 0.00 | 26 | 983.1 |
| 20260501225648 | 31 | 227 | 0.0 | 0.0 | 0.00 | 0.00 | 0.00 | 26 | 982.9 |
| 20260501225144 | 31 | 238 | 6.4 | 8.0 | 0.00 | 0.00 | 0.00 | 26 | 983.1 |
| 20260501224641 | 30 | 224 | 3.2 | 4.8 | 0.00 | 0.00 | 0.00 | 27 | 983.3 |
| 20260501224138 | 31 | 226 | 1.6 | 4.8 | 0.00 | 0.00 | 0.00 | 25 | 983.3 |
| 20260501223634 | 31 | 221 | 12.9 | 12.9 | 0.00 | 0.00 | 0.00 | 26 | 983.4 |
| 20260501223131 | 30 | 217 | 6.4 | 8.0 | 0.00 | 0.00 | 0.00 | 24 | 983.3 |
| 20260501222627 | 31 | 230 | 6.4 | 9.7 | 0.00 | 0.00 | 0.00 | 26 | 983.6 |
| 20260501222124 | 31 | 250 | 6.4 | 11.3 | 0.00 | 0.00 | 0.00 | 26 | 983.6 |
| 20260501221621 | 31 | 239 | 9.7 | 12.9 | 0.00 | 0.00 | 0.00 | 26 | 983.5 |
| 20260501221118 | 30 | 244 | 8.0 | 9.7 | 0.00 | 0.00 | 0.00 | 26 | 983.6 |
| 20260501220616 | 31 | 225 | 8.0 | 11.3 | 0.00 | 0.00 | 0.00 | 28 | 983.6 |
| 20260501220113 | 30 | 248 | 6.4 | 12.9 | 0.00 | 0.00 | 0.00 | 29 | 983.9 |
| 20260501215609 | 30 | 245 | 11.3 | 14.5 | 0.00 | 0.00 | 0.00 | 28 | 983.8 |
| 20260501215105 | 30 | 214 | 11.3 | 16.1 | 0.00 | 0.00 | 0.00 | 30 | 984.0 |
| 20260501214600 | 30 | 233 | 4.8 | 8.0 | 0.00 | 0.00 | 0.00 | 28 | 984.0 |
| 20260501214055 | 30 | 226 | 9.7 | 12.9 | 0.00 | 0.00 | 0.00 | 29 | 984.0 |
| 20260501213553 | 30 | 245 | 8.0 | 11.3 | 0.00 | 0.00 | 0.00 | 29 | 984.4 |
| 20260501213049 | 30 | 233 | 12.9 | 14.5 | 0.00 | 0.00 | 0.00 | 30 | 984.5 |
| 20260501212545 | 30 | 258 | 4.8 | 4.8 | 0.00 | 0.00 | 0.00 | 29 | 984.4 |
| 20260501212042 | 30 | 291 | 11.3 | 12.9 | 0.00 | 0.00 | 0.00 | 30 | 984.4 |
| 20260501211539 | 30 | 244 | 3.2 | 4.8 | 0.00 | 0.00 | 0.00 | 29 | 984.5 |
| 20260501211037 | 30 | 260 | 4.8 | 8.0 | 0.00 | 0.00 | 0.00 | 30 | 984.5 |
| 20260501210533 | 30 | 293 | 11.3 | 12.9 | 0.00 | 0.00 | 0.00 | 29 | 984.6 |
| 20260501210030 | 30 | 228 | 8.0 | 12.9 | 0.00 | 0.00 | 0.00 | 29 | 984.6 |
| 20260501205526 | 30 | 267 | 4.8 | 8.0 | 0.00 | 0.00 | 0.00 | 29 | 984.6 |
| 20260501205025 | 30 | 231 | 6.4 | 8.0 | 0.00 | 0.00 | 0.00 | 29 | 984.8 |
| 20260501204520 | 29 | 274 | 4.8 | 9.7 | 0.00 | 0.00 | 0.00 | 29 | 985.0 |
| 20260501204016 | 29 | 264 | 0.0 | 0.0 | 0.00 | 0.00 | 0.00 | 31 | 985.0 |
| 20260501203513 | 29 | 217 | 0.0 | 0.0 | 0.00 | 0.00 | 0.00 | 31 | 984.9 |
| 20260501203011 | 30 | 229 | 1.6 | 1.6 | 0.00 | 0.00 | 0.00 | 30 | 985.0 |
| 20260501202507 | 30 | 237 | 6.4 | 11.3 | 0.00 | 0.00 | 0.00 | 31 | 985.0 |
| 20260501202004 | 29 | 269 | 0.0 | 0.0 | 0.00 | 0.00 | 0.00 | 30 | 984.9 |
| 20260501201501 | 29 | 294 | 11.3 | 12.9 | 0.00 | 0.00 | 0.00 | 31 | 985.1 |
| 20260501200958 | 30 | 221 | 3.2 | 3.2 | 0.00 | 0.00 | 0.00 | 30 | 985.2 |
| 20260501200455 | 29 | 242 | 3.2 | 4.8 | 0.00 | 0.00 | 0.00 | 31 | 985.2 |
| 20260501195952 | 28 | 223 | 0.0 | 1.6 | 0.00 | 0.00 | 0.00 | 31 | 985.1 |
| 20260501195449 | 28 | 248 | 4.8 | 9.7 | 0.00 | 0.00 | 0.00 | 30 | 985.3 |
| 20260501194945 | 28 | 223 | 3.2 | 4.8 | 0.00 | 0.00 | 0.00 | 31 | 985.4 |
| 20260501194440 | 28 | 216 | 3.2 | 4.8 | 0.00 | 0.00 | 0.00 | 30 | 985.3 |
| 20260501193937 | 28 | 221 | 9.7 | 11.3 | 0.00 | 0.00 | 0.00 | 31 | 985.5 |
| 20260501193435 | 28 | 235 | 9.7 | 14.5 | 0.00 | 0.00 | 0.00 | 30 | 985.3 |
| 20260501192933 | 29 | 236 | 8.0 | 11.3 | 0.00 | 0.00 | 0.00 | 31 | 985.6 |
| 20260501192429 | 28 | 260 | 3.2 | 3.2 | 0.00 | 0.00 | 0.00 | 32 | 985.8 |
| 20260501191927 | 28 | 243 | 6.4 | 11.3 | 0.00 | 0.00 | 0.00 | 33 | 985.8 |
| 20260501191424 | 28 | 216 | 8.0 | 9.7 | 0.00 | 0.00 | 0.00 | 33 | 986.0 |
| 20260501190921 | 28 | 259 | 4.8 | 4.8 | 0.00 | 0.00 | 0.00 | 34 | 985.7 |
| 20260501190417 | 27 | 229 | 0.0 | 1.6 | 0.00 | 0.00 | 0.00 | 33 | 985.9 |
| 20260501185917 | 27 | 213 | 1.6 | 3.2 | 0.00 | 0.00 | 0.00 | 35 | 986.1 |
| 20260501185414 | 28 | 250 | 4.8 | 4.8 | 0.00 | 0.00 | 0.00 | 33 | 985.9 |
| 20260501184909 | 28 | 257 | 4.8 | 4.8 | 0.00 | 0.00 | 0.00 | 34 | 986.2 |
| 20260501184406 | 27 | 225 | 0.0 | 1.6 | 0.00 | 0.00 | 0.00 | 35 | 986.4 |
| 20260501183901 | 27 | 239 | 9.7 | 14.5 | 0.00 | 0.00 | 0.00 | 35 | 986.2 |
| 20260501183359 | 28 | 207 | 11.3 | 12.9 | 0.00 | 0.00 | 0.00 | 35 | 986.6 |
| 20260501182855 | 28 | 212 | 0.0 | 0.0 | 0.00 | 0.00 | 0.00 | 34 | 986.5 |
| 20260501182352 | 27 | 214 | 1.6 | 1.6 | 0.00 | 0.00 | 0.00 | 35 | 986.9 |
| 20260501181849 | 26 | 278 | 8.0 | 9.7 | 0.00 | 0.00 | 0.00 | 36 | 986.6 |
| 20260501181346 | 27 | 217 | 3.2 | 3.2 | 0.00 | 0.00 | 0.00 | 35 | 986.9 |
| 20260501180844 | 27 | 271 | 3.2 | 3.2 | 0.00 | 0.00 | 0.00 | 36 | 986.6 |
| 20260501180339 | 26 | 269 | 9.7 | 11.3 | 0.00 | 0.00 | 0.00 | 36 | 986.9 |
| 20260501175837 | 26 | 230 | 1.6 | 1.6 | 0.00 | 0.00 | 0.00 | 37 | 986.9 |
| 20260501175333 | 26 | 223 | 9.7 | 11.3 | 0.00 | 0.00 | 0.00 | 37 | 987.2 |
| 20260501174830 | 26 | 222 | 1.6 | 1.6 | 0.00 | 0.00 | 0.00 | 36 | 987.0 |
| 20260501174327 | 27 | 243 | 1.6 | 3.2 | 0.00 | 0.00 | 0.00 | 36 | 987.1 |
| 20260501173825 | 26 | 221 | 1.6 | 1.6 | 0.00 | 0.00 | 0.00 | 36 | 987.1 |
| 20260501173323 | 27 | 253 | 3.2 | 3.2 | 0.00 | 0.00 | 0.00 | 36 | 987.2 |
| 20260501172818 | 25 | 230 | 4.8 | 8.0 | 0.00 | 0.00 | 0.00 | 36 | 987.0 |
| 20260501172313 | 26 | 256 | 6.4 | 8.0 | 0.00 | 0.00 | 0.00 | 36 | 987.2 |
| 20260501171809 | 26 | 209 | 3.2 | 4.8 | 0.00 | 0.00 | 0.00 | 36 | 987.3 |
| 20260501171306 | 25 | 228 | 1.6 | 1.6 | 0.00 | 0.00 | 0.00 | 36 | 987.1 |
| 20260501170803 | 25 | 227 | 1.6 | 1.6 | 0.00 | 0.00 | 0.00 | 37 | 987.2 |
| 20260501170300 | 25 | 259 | 1.6 | 1.6 | 0.00 | 0.00 | 0.00 | 38 | 987.0 |
| 20260501165757 | 25 | 238 | 3.2 | 8.0 | 0.00 | 0.00 | 0.00 | 38 | 987.4 |
| 20260501165255 | 25 | 278 | 6.4 | 8.0 | 0.00 | 0.00 | 0.00 | 37 | 987.1 |
| 20260501164752 | 25 | 238 | 6.4 | 11.3 | 0.00 | 0.00 | 0.00 | 39 | 987.1 |
| 20260501164250 | 24 | 244 | 9.7 | 11.3 | 0.00 | 0.00 | 0.00 | 41 | 987.1 |
| 20260501163745 | 25 | 221 | 8.0 | 9.7 | 0.00 | 0.00 | 0.00 | 41 | 987.2 |
| 20260501163243 | 24 | 236 | 1.6 | 3.2 | 0.00 | 0.00 | 0.00 | 40 | 987.0 |
| 20260501162738 | 24 | 226 | 0.0 | 0.0 | 0.00 | 0.00 | 0.00 | 41 | 987.0 |